Home   Weather   Caversham   Past weeks

Flag for United Kingdom Past Weather in Caversham, England, United Kingdom — Yesterday and Last 2 Weeks

Now
36 °F

Overcast.


Feels Like: 31 °F
Forecast: 30 / 40 °F
Wind: 6 mph from Southeast

Location: Benson

Current Time: Jan 17, 2017 at 9:21:04 am

Latest Report: Jan 17, 2017 at 8:00 am


Visibility: 6 mi

Pressure: 30.57 "Hg

Humidity: 91%

Dew Point: 34 °F

Location of CavershamLocation

Past Weather in Caversham — Graph

°F

Caversham Temperature Yesterday

Maximum temperature yesterday: 47 °F (at 12:00 am)
Minimum temperature yesterday: 39 °F (at 11:00 pm)
Average temperature yesterday: 43 °F

High & Low Weather Summary for the Past Weeks

 TemperatureHumidityPressure
High51 °F (Jan 7, 2:00 pm)100% (Jan 7, 5:00 am)30.64 "Hg (Jan 7, 5:00 am)
Low18 °F (Jan 5, 8:00 am)50% (Jan 11, 1:00 pm)29.38 "Hg (Jan 12, 5:00 pm)
Average39 °F89%30.22 "Hg
* Reported Jan 2 7:00 am — Jan 17 7:00 am, Caversham, Weather by CustomWeather, © 2017

Note: Actual official high and low records may vary slightly from our data, if they occured in-between our weather recording intervals... More about our weather records

Advertising

Caversham Weather History for the Previous 24 Hours

Scroll right to see more
 ConditionsComfort  
Time TempWeatherWind HumidityBarometerVisibility
7:00 am
Tue, Jan 17
34 °FFog.3 mph96%30.55 "Hg6 mi
6:00 am35 °FFog.2 mph96%30.53 "Hg3 mi
5:00 am35 °FFog.1 mph98%30.53 "Hg3 mi
4:00 am37 °FPassing clouds.1 mph96%30.51 "Hg6 mi
3:00 am39 °FPassing clouds.3 mph91%30.51 "Hg8 mi
2:00 am39 °FChilly.5 mph94%30.50 "Hg6 mi
1:00 am39 °FChilly.2 mph94%30.48 "Hg8 mi
12:00 am39 °FOvercast.1 mph94%30.48 "Hg13 mi
11:00 pm
Mon, Jan 16
39 °FOvercast.2 mph92%30.47 "Hg12 mi
10:00 pm39 °FOvercast.7 mph91%30.47 "Hg12 mi
9:00 pm39 °FOvercast.8 mph92%30.45 "Hg7 mi
8:00 pm39 °FChilly.8 mph93%30.43 "Hg7 mi
7:00 pm40 °FChilly.9 mph97%30.41 "Hg1 mi
6:00 pm40 °FLow clouds.6 mph96%30.38 "Hg5 mi
5:00 pm41 °FOvercast.7 mph97%30.37 "Hg4 mi
4:00 pm41 °FDrizzle. Low clouds.6 mph97%30.35 "Hg2 mi
3:00 pm42 °FDrizzle. Low clouds.7 mph97%30.35 "Hg2 mi
2:00 pm43 °FRain. Low clouds.6 mph93%30.34 "Hg7 mi
1:00 pm43 °FLight rain. Low clouds.6 mph95%30.34 "Hg4 mi
12:00 pm43 °FRain. Low clouds.6 mph96%30.34 "Hg2 mi
11:00 am43 °FRain. Low clouds.5 mph97%30.34 "Hg2 mi
10:00 am43 °FRain. Low clouds.3 mph98%30.33 "Hg2 mi
9:00 am43 °FDrizzle. Low clouds.1 mph98%30.33 "Hg2 mi
Weather by CustomWeather, © 2017

See weather overviewHow to use our weather pages